Location: Juti
(61.1667°N, 23.0667°E)
Time: 06:16:35
(UTC+00:00)

Daily predictions for brighter satellites

Satellite Brightness Start Highest point End
(mag) Time Altitude Azimuth Time Altitude Azimuth Time Altitude Azimuth
COSMOS 2406 4.2 14:58:07 10° WNW 15:03:14 33° NNW 15:08:22 10° NE
Cosmos 2237 Rocket 2.5 14:58:37 10° NW 15:04:18 77° SW 15:09:54 10° SSE
Ariane Rocket 4.3 15:00:42 10° E 15:04:19 20° NE 15:07:57 10° N
Cosmos 1025 Rocket 4.3 15:00:57 10° SW 15:04:59 39° WNW 15:09:02 10° N
Cosmos 2184 Rocket 4.2 14:59:13 10° SSE 15:05:07 50° E 15:11:04 10° NNE
Cosmos 1707 3.7 15:02:09 10° SW 15:05:58 49° WNW 15:09:49 10° N
Cosmos 1602 Rocket 4.5 15:03:41 10° SSE 15:07:27 29° E 15:11:12 10° NNE
Cosmos 1300 2.6 15:04:01 10° NNW 15:07:53 73° ENE 15:11:42 10° SSE
Alouette 2 Rocket 4.4 15:04:19 10° NNW 15:08:46 80° WSW 15:15:29 10° SSE
CZ-4B R/B 3.8 15:05:47 10° S 15:11:26 66° WSW 15:17:05 10° NNW
ATLAS 5 CENTAUR R/B 2.1 15:07:12 10° SW 15:11:36 59° SE 15:16:43 10° ENE
ALOS 3.6 15:08:01 10° S 15:12:30 45° W 15:17:02 10° NNW
Cosmos 2154 Rocket 4.4 15:08:24 10° SSE 15:14:11 41° E 15:19:59 10° NNE
Okean 1-7 Rocket 3.6 15:09:56 10° S 15:14:21 75° E 15:18:50 10° NNE
COSMO-SKYMED 1 4.3 15:12:25 10° NE 15:14:46 14° E 15:17:05 10° ESE
Cosmos 2333 Rocket 4.2 15:11:57 10° NW 15:17:07 35° WSW 15:22:12 10° S
CSL-04 Rocket 4.3 15:12:29 10° ESE 15:17:30 37° NE 15:22:35 10° NNW
ERS-2 4.3 15:15:02 10° N 15:17:51 21° NW 15:20:39 10° W
Cosmos 2298 Rocket 4.3 15:13:30 10° S 15:18:40 55° ESE 15:23:53 10° NE
SAR-Lupe-4 4.3 15:16:36 10° NNE 15:20:08 53° WNW 15:23:38 10° SW
Cosmos 1455 2.9 15:17:42 10° N 15:21:12 32° ENE 15:24:39 10° SE
Iridium 4 Rocket 3.9 15:17:15 10° SSW 15:21:26 54° WNW 15:25:54 10° N
Cosmos 1939 Rocket 4.0 15:19:25 10° ESE 15:22:35 23° NE 15:25:48 10° N
ATLAS 5 CENTAUR R/B 2.1 15:22:24 10° W 15:25:06 84° S 15:32:29 10° E
Cosmos 1937 Rocket 3.7 15:19:50 10° SW 15:25:09 82° NW 15:30:32 10° NNE
Cosmos 1898 Rocket 3.8 15:19:58 10° SW 15:25:16 69° NW 15:30:34 10° NNE
COSMOS 2487 3.1 15:22:28 10° SW 15:25:53 53° NW 15:29:20 10° NNE
Cosmos 1626 Rocket 3.8 15:23:46 10° SSE 15:27:55 47° E 15:32:06 10° NNE
SL-16 R/B 2.2 15:23:04 10° NW 15:28:49 82° NE 15:34:30 10° SE
CORIOLIS 4.1 15:23:33 10° SSE 15:28:55 84° ENE 15:34:19 10° NNW
Cosmos 2074 Rocket 4.0 15:22:58 10° S 15:29:13 70° E 15:35:28 10° NNE
Cosmos 2251 Rocket 3.5 15:26:01 10° NNW 15:31:18 63° NE 15:36:35 10° SE
Cosmos 2084 3.6 15:28:09 10° W 15:32:38 71° N 15:36:55 11° E
PSLV R/B 4.4 15:29:41 10° NNE 15:33:33 39° E 15:37:24 10° S
NOSS 3-3 (A) 4.4 15:28:33 10° WNW 15:35:20 78° NNE 15:43:07 10° E
NOSS 3-3 (C) 4.4 15:28:39 10° WNW 15:35:26 78° NNE 15:43:12 10° E
KORONAS-FOTON 3.9 15:32:20 10° SSW 15:36:06 79° WNW 15:39:56 10° NNE
CZ-2D R/B 4.2 15:33:23 10° ESE 15:36:39 27° ENE 15:39:57 10° N
Cosmos 1607 4.3 15:30:55 10° SSW 15:36:47 49° SE 15:42:18 12° ENE
H-2A R/B 3.5 15:33:04 10° N 15:37:12 38° WNW 15:41:22 10° SW
Cosmos 1140 Rocket 4.3 15:34:29 10° NNW 15:39:12 32° NNE 15:43:54 10° E
SJ 16-02 2.2 15:34:54 10° SW 15:39:13 48° NW 15:43:33 10° NNE
SeaSat 1 3.8 15:35:20 10° NE 15:39:33 29° NNW 15:43:47 10° WNW
Cosmos 1818 3.8 15:34:28 10° W 15:39:55 63° NNW 15:44:46 13° ENE
Cosmos 1603 3.9 15:35:49 10° NW 15:41:25 52° NE 15:46:57 10° ESE
H-2A R/B 3.2 15:37:55 10° E 15:41:44 22° NE 15:45:37 10° N
Helios 1A Rocket 4.3 15:38:12 10° S 15:42:04 42° W 15:46:00 10° NNW
Nadezhda 3 Rocket 4.2 15:37:05 10° NNW 15:43:24 82° W 15:49:44 10° S
CZ-4B R/B 1.7 15:41:13 10° N 15:44:15 59° WNW 15:47:17 10° SSW
Cosmos 2219 4.0 15:39:28 10° S 15:44:25 33° ESE 15:48:56 12° NE
Cosmos 1271 Rocket 2.6 15:40:57 10° S 15:44:42 77° ESE 15:48:32 10° NNE
Meteor 2-10 Rocket 3.6 15:39:33 10° NNW 15:44:56 60° ENE 15:50:04 10° SSE
Meteor 1-24 Rocket 3.6 15:42:10 10° S 15:47:32 80° ESE 15:53:07 10° NNE
Cosmos 1825 Rocket 4.3 15:44:39 10° SSE 15:48:25 30° E 15:52:12 10° NNE
USA 32 4.4 15:44:39 10° SSE 15:49:34 43° E 15:54:31 10° NNE
Cosmos 2150 Rocket 3.9 15:44:38 10° SSW 15:49:47 77° ESE 15:54:59 10° NE
Cosmos 1833 4.3 15:44:31 10° SW 15:50:17 81° NW 15:55:57 11° NE
Cosmos 1125 Rocket 3.7 15:46:21 10° S 15:51:25 55° ESE 15:56:30 10° NE
Okean O Rocket 3.6 15:47:33 10° SSW 15:51:37 34° W 15:55:43 10° NNW
Cosmos 2297 Rocket 3.1 15:47:03 10° SSE 15:51:49 29° ESE 15:55:39 14° ENE
Cosmos 372 Rocket 4.0 15:47:37 10° SSW 15:52:47 84° ESE 15:58:02 10° NE
ATLAS CENTAUR R/B 1.9 15:48:59 10° WNW 15:53:13 61° SW 15:57:06 10° SE
Cosmos 1727 Rocket 4.2 15:48:26 10° N 15:54:27 48° ENE 16:00:24 10° SE
Cosmos 1242 Rocket 2.4 15:51:19 10° SSW 15:54:52 80° ESE 15:58:31 10° NNE
Cosmos 2221 3.4 15:53:35 10° N 15:57:19 28° ENE 16:01:01 10° ESE
Okean-O 2.6 15:53:26 10° SSE 15:57:53 90° WSW 16:02:22 10° NNW
Envisat 3.1 15:54:02 10° SSE 15:59:08 81° WSW 16:04:16 10° NNW
CZ-4 R/B 1.5 15:55:45 10° SE 15:59:49 59° ENE 16:03:59 10° NNW
SKYMED 2 4.4 15:59:32 10° NNE 16:03:24 30° E 16:07:14 10° SSE
USA 267 4.1 15:58:22 14° E 16:03:26 36° SE 16:09:24 10° SSW
Cosmos-2242 2.9 15:59:56 10° NNW 16:04:18 83° ENE 16:08:37 10° SSE
Cosmos 2227 Rocket 3.0 15:59:52 10° S 16:04:46 31° ESE 16:08:16 17° ENE
Cosmos 1340 Rocket 4.2 16:01:24 10° NNW 16:05:10 42° W 16:08:56 10° SSW
ARGOS 4.1 16:01:29 13° E 16:05:18 27° NE 16:09:48 10° N
H-2A R/B 4.1 16:01:34 10° S 16:05:19 45° W 16:09:07 10° NNW
Resurs 01 Rocket 3.4 16:05:43 14° NE 16:05:52 14° NE 16:08:09 10° N
Meteor 1-21 Rocket 4.5 16:00:59 10° SSE 16:06:23 48° E 16:11:55 10° NNE
NOAA 11 4.2 16:02:30 10° SE 16:07:55 61° ENE 16:13:20 10° NNW
SL-14 R/B 3.3 16:04:07 10° SSW 16:08:06 85° WNW 16:12:03 10° NNE
SMAP 4.2 16:04:31 10° S 16:09:02 48° W 16:13:34 10° NNW
SL-8 Rocket 4.3 16:03:32 10° SSE 16:09:27 45° E 16:15:22 10° NNE
Cosmos 1190 Rocket 4.4 16:04:28 10° NNW 16:09:34 44° NE 16:14:07 13° ESE
Cosmos 407 Rocket 3.8 16:05:46 10° NNW 16:10:57 48° NE 16:15:54 11° ESE
Cosmos 1833 Rocket 3.8 16:06:31 10° WNW 16:11:31 31° N 16:15:12 16° NE
Cosmos 1943 3.3 16:07:46 10° NW 16:13:22 59° NE 16:18:52 10° ESE
FengYun 1-2 T 4.4 16:08:19 10° SSE 16:14:00 85° WSW 16:19:44 10° NNW
Cosmos 1689 Rocket 3.3 16:13:55 10° N 16:16:45 42° WNW 16:19:35 10° SW
Cosmos 1356 Rocket 3.4 16:12:51 10° NNW 16:16:50 56° ENE 16:20:51 10° SSE
SJ-6B 4.2 16:17:44 20° NE 16:17:44 20° NE 16:20:14 10° N
Meteor 2-5 Rocket 4.3 16:13:16 10° SW 16:18:46 58° WNW 16:24:25 10° NNE
Timation 2 Rocket 4.0 16:14:17 10° SW 16:20:32 79° SE 16:26:01 15° NE
COBE Rocket 4.3 16:15:29 10° NNE 16:20:36 69° WNW 16:25:46 10° SSW
Cosmos 2341 Rocket 4.0 16:18:56 10° S 16:25:14 68° E 16:31:31 10° NNE
Cosmos 839 Rocket 4.3 16:20:17 10° W 16:26:25 62° NNW 16:31:04 21° ENE
HJ-1C 3.9 16:26:16 29° E 16:27:11 36° ENE 16:30:19 10° N
YAOGAN 6 3.2 16:23:39 10° S 16:27:16 60° WSW 16:30:54 10° NNW
YAOGAN 1 2.5 16:23:11 10° SSE 16:27:31 81° ENE 16:31:53 10° NNW
IRS-1A Rocket 4.4 16:22:29 10° SE 16:27:58 51° ENE 16:33:22 10° NNW
CZ-2C R/B 3.9 16:26:17 19° ESE 16:29:30 34° NE 16:34:37 10° N
SL-16 R/B 4.4 16:26:53 10° NNE 16:31:32 23° NNW 16:36:11 10° W
CSL-04 Debris 4.1 16:30:10 10° SSE 16:35:35 90° ENE 16:41:04 10° NNW
Iridium 96 4.1 16:33:46 10° NNW 16:36:04 56° W 16:38:27 10° S
Cosmos 1626 3.0 16:35:01 10° SW 16:38:37 49° WNW 16:42:16 10° N
Ariane Rocket 3.0 16:37:29 10° SE 16:42:28 59° ENE 16:47:30 10° NNW
Cosmos 1703 3.5 16:39:25 10° SSE 16:43:12 45° E 16:44:41 30° NE
ISS -1.2 16:43:43 10° S 16:44:29 11° SSE 16:44:31 11° SSE
Cosmos 1602 Rocket 4.2 16:40:48 10° SSW 16:45:06 55° WNW 16:49:24 10° N
Cosmos 864 Rocket 4.5 16:40:26 10° S 16:46:25 58° E 16:52:27 10° NNE
Cosmos 2082 Rocket 3.3 16:41:51 10° WNW 16:46:50 31° N 16:49:30 21° NE
COSMOS 2406 4.1 16:43:50 10° NW 16:48:59 34° NNE 16:51:07 26° NE
Cosmos 2218 Rocket 4.0 16:44:19 10° S 16:50:38 66° E 16:56:59 10° NNE
COSMO-SKYMED 1 2.5 16:47:57 13° NNE 16:51:48 66° ESE 16:56:07 10° S
Cosmos 1842 Rocket 3.5 16:50:00 10° NNW 16:54:30 82° ENE 16:59:00 10° SSE
ATLAS CENTAUR R/B 4.4 16:48:33 10° WSW 16:55:28 70° SSE 17:07:28 24° E
ATLAS 5 CENTAUR R/B 1.9 16:51:32 10° W 16:56:15 74° N 16:58:33 34° ENE
Cosmos 1455 3.5 16:53:19 10° NNW 16:56:57 42° W 17:00:33 10° SSW
Cosmos 1939 Rocket 3.0 16:53:11 10° SSE 16:57:09 77° WSW 17:01:14 10° NNW
Cosmos 1869 3.5 16:53:21 10° N 16:57:17 47° ENE 16:57:30 47° ENE
CSL-04 Rocket 4.0 16:52:03 10° S 16:57:35 71° WSW 17:03:11 10° NNW
ADEOS Rocket 3.6 16:52:06 10° NNE 16:58:10 40° E 17:04:48 10° SSE
Cosmos 1953 Rocket 3.5 16:53:50 10° S 16:58:19 75° ESE 17:02:37 11° NNE
Cosmos 2123 Rocket 4.2 16:53:22 10° N 16:59:33 50° ENE 17:04:12 17° SE
Cosmos 614 Rocket 3.9 16:54:30 10° NNW 16:59:44 84° ENE 17:03:57 16° SE
Cosmos 1758 Rocket 3.7 16:58:24 10° SSW 17:02:43 73° WNW 17:07:05 10° NNE
SL-08 RB Rocket 4.3 17:03:30 37° NE 17:03:30 37° NE 17:07:34 10° N
Cosmos 1959 Rocket 4.3 16:58:33 10° S 17:04:40 75° E 17:10:47 10° NNE
Cosmos 967 Rocket 4.5 17:00:02 10° WNW 17:06:34 88° NNE 17:10:16 28° ESE
Cosmos 1000 Rocket 4.4 17:01:36 10° NNW 17:07:49 74° ENE 17:14:03 10° SSE
CZ-2D R/B 3.8 17:07:00 10° S 17:10:49 58° WSW 17:14:39 10° NNW
Cosmos 1023 Rocket 4.4 17:06:27 10° NNW 17:11:47 77° NE 17:14:23 31° SE
Cosmos 2084 3.5 17:07:51 10° WNW 17:12:19 78° SSW 17:13:28 48° SE
SL-16 R/B 4.0 17:07:33 10° NW 17:12:32 32° WSW 17:17:30 10° S
ERBS 3.8 17:11:32 10° SW 17:13:46 26° S 17:13:46 26° S
Meteor 2-12 Rocket 4.4 17:09:06 10° S 17:14:58 56° E 17:20:54 10° NNE
CZ-4B R/B 4.3 17:15:04 10° NNW 17:16:00 11° NW 17:16:57 10° WNW
SeaSat 1 3.8 17:14:52 23° NNE 17:16:07 25° N 17:20:07 10° NW
SJ 16-02 3.5 17:15:37 10° WNW 17:18:51 19° NNW 17:21:13 13° NNE
Cosmos 1850 Rocket 4.4 17:14:51 10° NNW 17:19:57 43° NE 17:20:26 42° NE
H-2A R/B 1.9 17:18:08 33° SE 17:20:24 67° ENE 17:25:36 10° NNW
Cosmos 2366 rocket 3.9 17:14:09 10° S 17:20:25 87° E 17:26:48 10° NNE
Cosmos 1140 Rocket 3.4 17:16:25 10° NNW 17:21:44 84° NE 17:24:01 35° SE
Meteor 1-27 4.5 17:17:24 10° NNW 17:22:57 68° W 17:28:29 10° S
SJ-11-01 4.2 17:19:42 14° SSE 17:23:46 88° ENE 17:28:31 10° NNW
Cosmos 1607 3.9 17:17:41 10° WSW 17:23:52 79° NNW 17:26:25 38° ENE
Cosmos 1818 3.7 17:18:38 10° WNW 17:24:05 62° NNE 17:25:24 47° ENE
Cosmos 1603 4.1 17:20:08 10° NW 17:25:45 61° WSW 17:30:46 13° SSE
Cosmos 1825 Rocket 4.2 17:21:49 10° SSW 17:26:05 54° WNW 17:30:20 10° N
Cosmos 44 3.6 17:21:56 10° SSW 17:25:35 41° SSE 17:25:35 41° SSE
Cosmos 2219 3.2 17:22:32 10° SW 17:28:11 80° NW 17:30:52 33° NE
Cosmos 2082 3.6 17:22:53 10° SSW 17:28:26 61° ESE 17:29:40 49° ENE
Cosmos 1741 Rocket 4.3 17:24:29 10° NNW 17:29:36 46° NE 17:29:48 46° NE
ATLAS CENTAUR R/B 4.1 17:28:42 10° WNW 17:31:24 17° WSW 17:33:57 10° SSW
Meteor 1-11 4.0 17:27:08 10° S 17:32:43 75° ESE 17:38:19 10° NNE
Cosmos 1125 Rocket 4.4 17:28:38 10° WSW 17:33:40 47° NW 17:36:47 22° NNE
CZ-4 R/B 3.6 17:31:37 10° SSW 17:35:10 27° W 17:38:47 10° NNW
Cosmos 2221 2.9 17:31:00 10° NNW 17:35:14 61° W 17:39:28 10° S
Cosmos 2297 Rocket 2.1 17:29:39 10° SW 17:35:20 89° NW 17:37:29 40° NE
Terra 4.0 17:37:58 13° NNE 17:37:58 13° NNE 17:39:05 10° N
Cosmos 1954 Rocket 3.9 17:33:48 10° NNW 17:39:11 84° NE 17:40:24 55° SE
SKYMED 2 4.1 17:36:31 16° N 17:39:51 58° WNW 17:44:08 10° SW
Resurs 01 Rocket 3.0 17:43:16 28° N 17:43:16 28° N 17:45:39 10° N
Meteor 2-20 4.4 17:38:00 10° NNW 17:44:00 57° ENE 17:44:28 55° E
ARGOS 3.0 17:42:59 40° SSE 17:45:02 85° ENE 17:50:29 10° NNW
USA 267 3.4 17:45:43 47° ESE 17:47:20 59° SSE 17:53:47 10° WSW
SL-24 R/B 4.5 17:45:40 38° SSE 17:47:40 84° WSW 17:53:13 10° NNW
Cosmos 2227 Rocket 2.2 17:42:43 10° SW 17:48:24 83° NW 17:50:07 47° NE
SPOT 3 Rocket 3.4 17:48:35 66° SE 17:49:18 80° ENE 17:54:30 10° NNW
Cosmos 1447 Rocket 4.5 17:45:30 10° N 17:51:34 56° ENE 17:51:36 56° ENE
SJ-6B 4.1 17:53:22 32° NNW 17:53:22 32° NNW 17:55:30 10° NNW
Cosmos 1190 Rocket 4.5 17:46:40 10° NW 17:51:54 61° WSW 17:54:27 30° S
Cosmos 407 Rocket 4.2 17:47:56 10° NW 17:53:07 54° WSW 17:56:11 23° S
Cosmos 1833 Rocket 3.4 17:51:32 10° NW 17:56:50 38° NNE 17:56:54 38° NNE
Cosmos 1943 4.0 17:52:00 10° NW 17:57:27 50° WSW 18:00:45 23° S
Cosmos 676 Rocket 4.2 17:58:36 10° NW 18:03:57 72° WSW 18:04:52 58° S
SL-24 R/B - RUBIN 2 4.5 18:01:27 10° WNW 18:07:34 68° N 18:08:21 62° NE
CZ-2C R/B 3.3 18:07:19 48° S 18:08:58 78° WSW 18:14:47 10° NNW
Cosmos 724 4.2 18:05:39 10° WSW 18:11:35 80° NNW 18:12:08 72° NNE
Ariane Rocket 4.4 18:17:03 10° SSW 18:21:44 36° W 18:26:27 10° NNW
Cosmos 839 Rocket 4.2 18:20:52 10° WNW 18:27:11 66° NNE 18:27:40 64° NE
COSMO-SKYMED 1 4.4 18:25:09 17° N 18:27:43 29° NW 18:31:27 10° WSW
Cosmos 1821 Rocket 4.0 18:21:50 10° SSW 18:28:12 79° WNW 18:34:30 10° NNE
Cosmos 2082 Rocket 3.1 18:26:55 10° NW 18:31:20 38° N 18:31:20 38° N
MetOp-A 4.4 18:34:27 67° WNW 18:34:27 67° WNW 18:39:21 10° NNW
COSMOS 2406 3.7 18:28:38 10° NW 18:33:11 51° N 18:33:11 51° N
ATLAS 5 CENTAUR R/B 2.6 18:36:16 10° WNW 18:40:05 54° NW 18:40:05 54° NW
ADEOS Rocket 3.4 18:37:44 10° NNE 18:44:06 71° WNW 18:51:10 10° SW
SeaSat 1 4.1 18:54:38 28° NNW 18:54:38 28° NNW 18:57:21 10° NW
SJ 16-02 4.0 18:56:45 10° NNW 18:58:13 13° NNW 18:58:13 13° NNW
H-2A R/B 3.6 18:58:44 26° SW 19:00:16 31° W 19:04:54 10° NNW
Terra 4.3 19:16:52 15° N 19:16:52 15° N 19:17:39 10° NNW
Cosmos 2219 4.4 19:07:50 10° W 19:12:49 37° NNW 19:12:49 37° NNW
Resurs 01 Rocket 4.1 19:20:50 19° NW 19:20:50 19° NW 19:22:15 10° NNW
Cosmos 2297 Rocket 3.4 19:14:40 10° W 19:19:19 39° NW 19:19:19 39° NW
USA 267 4.1 19:33:03 43° WSW 19:33:03 43° WSW 19:37:27 10° W
Cosmos 2227 Rocket 3.6 19:27:52 10° W 19:31:58 35° NW 19:31:58 35° NW
Cosmos 1833 Rocket 4.3 19:35:45 10° NW 19:38:36 31° NW 19:38:36 31° NW
Cosmos 2082 Rocket 4.3 20:11:15 10° NW 20:13:11 22° NW 20:13:11 22° NW
